When you browse on this site, cookies collect data to enhance your experience and personalize the content and advertising you see.
Visit our Privacy Policy to learn more. By continuing to use the site, you agree to this use of cookies and data.
  • In Österreich
  • Länderverzeichnis
  • Für 7 Tage
  • Wassertemperatur
  • Wetterkarte
  • News
  • Widgets
  • user-avatar
    Anmelden

    Stündliche Wetter Huichapan

    Heute, 28 Mai, Donnerstag

    Zeit Temperatur Niederschläge Wind Luftdruck Luftfeuchtigkeit
    00:00 +18°C° 0 mm 2 m/S 595 mmHg 69%
    01:00 +19°C° 0 mm 1 m/S 595 mmHg 69%
    02:00 +18°C° 0 mm 1 m/S 594 mmHg 68%
    03:00 +18°C° 0 mm 1 m/S 594 mmHg 66%
    04:00 +18°C° 0 mm 1 m/S 594 mmHg 65%
    05:00 +16°C° 0 mm 1 m/S 594 mmHg 63%
    06:00 +20°C° 0 mm 1 m/S 596 mmHg 52%
    07:00 +22°C° 0 mm 1 m/S 597 mmHg 41%
    08:00 +24°C° 0 mm 1 m/S 598 mmHg 29%
    09:00 +26°C° 0 mm 2 m/S 598 mmHg 25%
    10:00 +27°C° 0 mm 3 m/S 598 mmHg 21%
    11:00 +28°C° 0 mm 3 m/S 599 mmHg 17%
    12:00 +29°C° 0 mm 3 m/S 598 mmHg 18%
    13:00 +29°C° 0 mm 3 m/S 597 mmHg 18%
    14:00 +30°C° 0 mm 3 m/S 597 mmHg 19%
    15:00 +27°C° 0.4 mm 4 m/S 596 mmHg 31%
    16:00 +23°C° 0.4 mm 5 m/S 595 mmHg 42%
    17:00 +21°C° 0.4 mm 6 m/S 594 mmHg 54%
    18:00 +20°C° 0.6 mm 5 m/S 595 mmHg 56%
    19:00 +19°C° 0.6 mm 4 m/S 595 mmHg 59%
    20:00 +19°C° 0.6 mm 3 m/S 596 mmHg 62%
    21:00 +18°C° 0 mm 2 m/S 596 mmHg 62%
    22:00 +19°C° 0 mm 1 m/S 597 mmHg 63%
    23:00 +19°C° 0 mm 1 m/S 597 mmHg 63%

    Morgen, 29 Mai, Freitag

    Zeit Temperatur Niederschläge Wind Luftdruck Luftfeuchtigkeit
    00:00 +19°C° 0 mm 1 m/S 596 mmHg 62%
    01:00 +19°C° 0 mm 1 m/S 596 mmHg 62%
    02:00 +19°C° 0 mm 1 m/S 595 mmHg 61%
    03:00 +19°C° 0 mm 1 m/S 595 mmHg 63%
    04:00 +18°C° 0 mm 1 m/S 595 mmHg 66%
    05:00 +16°C° 0 mm 0 m/S 595 mmHg 69%
    06:00 +19°C° 0 mm 1 m/S 596 mmHg 62%
    07:00 +21°C° 0 mm 1 m/S 596 mmHg 55%
    08:00 +21°C° 0 mm 2 m/S 597 mmHg 48%
    09:00 +22°C° 0.2 mm 3 m/S 597 mmHg 45%
    10:00 +24°C° 0.2 mm 3 m/S 597 mmHg 43%
    11:00 +25°C° 0.2 mm 4 m/S 597 mmHg 40%
    12:00 +25°C° 0.1 mm 4 m/S 597 mmHg 39%
    13:00 +25°C° 0.1 mm 4 m/S 597 mmHg 38%
    14:00 +26°C° 0.1 mm 4 m/S 597 mmHg 37%
    15:00 +25°C° 0 mm 5 m/S 596 mmHg 41%
    16:00 +23°C° 0 mm 6 m/S 596 mmHg 46%
    17:00 +22°C° 0 mm 7 m/S 596 mmHg 51%
    18:00 +20°C° 0.3 mm 6 m/S 595 mmHg 59%
    19:00 +17°C° 0.3 mm 5 m/S 595 mmHg 68%
    20:00 +16°C° 0.3 mm 3 m/S 595 mmHg 77%
    21:00 +16°C° 0 mm 3 m/S 595 mmHg 80%
    22:00 +14°C° 0 mm 3 m/S 595 mmHg 83%
    23:00 +15°C° 0 mm 2 m/S 595 mmHg 86%

    übermorgen, 30 Mai, Samstag

    Zeit Temperatur Niederschläge Wind Luftdruck Luftfeuchtigkeit
    00:00 +15°C° 0 mm 2 m/S 595 mmHg 87%
    01:00 +15°C° 0 mm 2 m/S 595 mmHg 88%
    02:00 +14°C° 0 mm 2 m/S 595 mmHg 89%
    03:00 +14°C° 0 mm 1 m/S 594 mmHg 89%
    04:00 +14°C° 0 mm 1 m/S 594 mmHg 89%
    05:00 +14°C° 0 mm 1 m/S 594 mmHg 88%
    06:00 +15°C° 0 mm 1 m/S 595 mmHg 83%
    07:00 +16°C° 0 mm 2 m/S 595 mmHg 77%
    08:00 +17°C° 0 mm 3 m/S 596 mmHg 72%
    09:00 +18°C° 0 mm 3 m/S 596 mmHg 67%
    10:00 +19°C° 0 mm 3 m/S 596 mmHg 62%
    11:00 +20°C° 0 mm 3 m/S 596 mmHg 58%
    12:00 +21°C° 0.1 mm 5 m/S 596 mmHg 56%
    13:00 +21°C° 0.1 mm 6 m/S 596 mmHg 54%
    14:00 +22°C° 0.1 mm 7 m/S 595 mmHg 52%
    15:00 +21°C° 0.3 mm 7 m/S 595 mmHg 57%
    16:00 +19°C° 0.3 mm 6 m/S 594 mmHg 62%
    17:00 +17°C° 0.3 mm 5 m/S 594 mmHg 67%
    18:00 +17°C° 0.5 mm 4 m/S 594 mmHg 71%
    19:00 +17°C° 0.5 mm 4 m/S 595 mmHg 75%
    20:00 +16°C° 0.5 mm 3 m/S 595 mmHg 79%
    21:00 +16°C° 0.1 mm 2 m/S 595 mmHg 80%
    22:00 +15°C° 0.1 mm 2 m/S 595 mmHg 82%
    23:00 +15°C° 0.1 mm 1 m/S 595 mmHg 83%

    31 Mai, Sonntag

    Zeit Temperatur Niederschläge Wind Luftdruck Luftfeuchtigkeit
    00:00 +15°C° 0 mm 1 m/S 595 mmHg 85%
    01:00 +14°C° 0 mm 1 m/S 594 mmHg 87%
    02:00 +14°C° 0 mm 1 m/S 593 mmHg 89%
    03:00 +14°C° 0 mm 1 m/S 593 mmHg 91%
    04:00 +13°C° 0 mm 1 m/S 593 mmHg 92%
    05:00 +13°C° 0 mm 1 m/S 593 mmHg 94%
    06:00 +14°C° 0 mm 2 m/S 594 mmHg 89%
    07:00 +15°C° 0 mm 2 m/S 595 mmHg 83%
    08:00 +16°C° 0 mm 2 m/S 595 mmHg 78%
    09:00 +18°C° 0 mm 3 m/S 596 mmHg 70%
    10:00 +19°C° 0 mm 4 m/S 596 mmHg 63%
    11:00 +21°C° 0 mm 4 m/S 596 mmHg 55%
    12:00 +21°C° 0.2 mm 5 m/S 596 mmHg 54%
    13:00 +22°C° 0.2 mm 6 m/S 596 mmHg 52%
    14:00 +23°C° 0.2 mm 6 m/S 596 mmHg 50%
    15:00 +22°C° 0.2 mm 7 m/S 595 mmHg 56%
    16:00 +20°C° 0.2 mm 7 m/S 594 mmHg 61%
    17:00 +18°C° 0.2 mm 8 m/S 594 mmHg 67%
    18:00 +17°C° 0.1 mm 6 m/S 594 mmHg 71%
    19:00 +17°C° 0.1 mm 4 m/S 594 mmHg 75%
    20:00 +17°C° 0.1 mm 3 m/S 595 mmHg 79%
    21:00 +16°C° 0.2 mm 2 m/S 595 mmHg 80%
    22:00 +16°C° 0.2 mm 2 m/S 595 mmHg 82%
    23:00 +16°C° 0.2 mm 2 m/S 595 mmHg 84%

    1 Juni, Montag

    Zeit Temperatur Niederschläge Wind Luftdruck Luftfeuchtigkeit
    00:00 +16°C° 0.6 mm 2 m/S 595 mmHg 85%
    01:00 +16°C° 0.6 mm 2 m/S 594 mmHg 87%
    02:00 +15°C° 0.6 mm 2 m/S 594 mmHg 88%
    03:00 +15°C° 0.2 mm 2 m/S 594 mmHg 87%
    04:00 +15°C° 0.2 mm 2 m/S 594 mmHg 87%
    05:00 +16°C° 0.2 mm 2 m/S 594 mmHg 86%
    06:00 +16°C° 0 mm 2 m/S 595 mmHg 81%
    07:00 +17°C° 0 mm 3 m/S 596 mmHg 76%
    08:00 +18°C° 0 mm 3 m/S 596 mmHg 71%
    09:00 +19°C° 0 mm 4 m/S 597 mmHg 66%
    10:00 +21°C° 0 mm 4 m/S 597 mmHg 61%
    11:00 +22°C° 0 mm 5 m/S 597 mmHg 55%
    12:00 +22°C° 0.3 mm 6 m/S 597 mmHg 55%
    13:00 +22°C° 0.3 mm 6 m/S 596 mmHg 55%
    14:00 +22°C° 0.3 mm 7 m/S 596 mmHg 55%
    15:00 +21°C° 0.1 mm 7 m/S 596 mmHg 59%
    16:00 +20°C° 0.1 mm 7 m/S 595 mmHg 63%
    17:00 +18°C° 0.1 mm 8 m/S 595 mmHg 67%
    18:00 +17°C° 0 mm 6 m/S 595 mmHg 71%
    19:00 +16°C° 0 mm 5 m/S 595 mmHg 75%
    20:00 +16°C° 0 mm 3 m/S 595 mmHg 79%
    21:00 +16°C° 0 mm 3 m/S 595 mmHg 80%
    22:00 +16°C° 0 mm 3 m/S 596 mmHg 80%
    23:00 +16°C° 0 mm 3 m/S 596 mmHg 81%

    2 Juni, Dienstag

    Zeit Temperatur Niederschläge Wind Luftdruck Luftfeuchtigkeit
    00:00 +16°C° 0 mm 3 m/S 595 mmHg 82%
    01:00 +15°C° 0 mm 2 m/S 595 mmHg 84%
    02:00 +15°C° 0 mm 2 m/S 594 mmHg 85%
    03:00 +15°C° 0 mm 2 m/S 594 mmHg 87%
    04:00 +14°C° 0 mm 2 m/S 594 mmHg 88%
    05:00 +14°C° 0 mm 1 m/S 594 mmHg 90%
    06:00 +15°C° 0 mm 2 m/S 595 mmHg 83%
    07:00 +16°C° 0 mm 2 m/S 596 mmHg 76%
    08:00 +18°C° 0 mm 2 m/S 596 mmHg 68%
    09:00 +19°C° 0 mm 3 m/S 597 mmHg 64%
    10:00 +20°C° 0 mm 3 m/S 597 mmHg 60%
    11:00 +21°C° 0 mm 4 m/S 597 mmHg 55%
    12:00 +22°C° 0 mm 4 m/S 597 mmHg 55%
    13:00 +22°C° 0 mm 5 m/S 596 mmHg 54%
    14:00 +22°C° 0 mm 6 m/S 596 mmHg 54%
    15:00 +22°C° 0 mm 6 m/S 596 mmHg 58%
    16:00 +21°C° 0 mm 6 m/S 595 mmHg 61%
    17:00 +20°C° 0 mm 6 m/S 595 mmHg 64%
    18:00 +19°C° 0 mm 5 m/S 595 mmHg 71%
    19:00 +18°C° 0 mm 4 m/S 595 mmHg 78%
    20:00 +17°C° 0 mm 3 m/S 595 mmHg 84%
    21:00 +16°C° 0 mm 3 m/S 595 mmHg 85%
    22:00 +16°C° 0 mm 2 m/S 595 mmHg 86%
    23:00 +16°C° 0 mm 2 m/S 596 mmHg 87%
    Mehr zeigen